Home > Time Zones > World Clock > Weather > Fiji > Nadi > Past weeks

Flag for Fiji Weather past 2 weeks in Nadi, Fiji

Now
81 °F

Passing clouds.


Feels Like: 85 °F
Forecast: 74 / 88 °F
Wind: 6 mph from Northwest

Location: Nandi


UV Index: 5 (Moderate)

Visibility: N/A


Pressure: 29.80 "Hg

Humidity: 79%

Dew point: 73 °F

Location of NadiLocation

Historic Weather in Nadi

°F

Nadi temperature yesterday

Maximum temperature yesterday: 86 °F (at 11:00 AM)
Minimum temperature yesterday: 72 °F (at 4:00 AM)
Average temperature yesterday: 78 °F

Past Weeks' High & Low Weather Summary

 TemperatureHumidityPressure
High88 °F (Apr 8, 2:00 PM)100% (Apr 5, 4:00 AM)29.95 "Hg (Apr 5, 4:00 AM)
Low68 °F (Apr 6, 2:00 AM)48% (Apr 15, 5:00 PM)29.77 "Hg (Apr 6, 2:00 PM)
Average78 °F81%29.85 "Hg
* Reported Apr 2 6:00 PM — Apr 17 6:00 PM, Nadi, Weather by CustomWeather, © 2014

Note: Actual official high and low records may vary slightly from our data, if they occured in-between our weather recording intervals... More about our weather records

Advertising

Historic Weather Conditions — Data for Previous 24 hours

 ConditionsComfort  
Time TempWeatherWind HumidityBarometerVisibility
6:00 PM
Apr 17
82 °FPassing clouds.6 mph74%29.80 "HgN/A
5:00 PM84 °FScattered clouds.8 mph66%29.77 "HgN/A
4:00 PM84 °FScattered clouds.10 mph70%29.77 "HgN/A
3:00 PM84 °FPassing clouds.12 mph70%29.77 "HgN/A
2:00 PM86 °FPassing clouds.12 mph66%29.80 "HgN/A
1:00 PM84 °FPassing clouds.12 mph70%29.83 "HgN/A
12:00 PM84 °FPassing clouds.10 mph70%29.83 "HgN/A
11:00 AM84 °FScattered clouds.9 mph70%29.86 "HgN/A
10:00 AM82 °FScattered clouds.No wind66%29.86 "HgN/A
9:00 AM81 °FScattered clouds.No wind66%29.86 "HgN/A
8:00 AM77 °FScattered clouds.6 mph74%29.86 "HgN/A
7:00 AM72 °FScattered clouds.7 mph83%29.86 "HgN/A
6:00 AM70 °FPassing clouds.6 mph94%29.83 "HgN/A
5:00 AM72 °FPassing clouds.6 mph88%29.83 "HgN/A
4:00 AM72 °FPassing clouds.5 mph94%29.83 "HgN/A
3:00 AM73 °FPassing clouds.6 mph89%29.83 "HgN/A
2:00 AM73 °FPassing clouds.5 mph89%29.83 "HgN/A
1:00 AM75 °FPassing clouds.3 mph83%29.86 "HgN/A
12:00 AM75 °FPassing clouds.No wind89%29.86 "HgN/A
11:00 PM
Apr 16
75 °FPassing clouds.6 mph89%29.86 "HgN/A
10:00 PM75 °FPassing clouds.6 mph89%29.86 "HgN/A
9:00 PM79 °FPassing clouds.7 mph79%29.86 "HgN/A
8:00 PM79 °FPassing clouds.5 mph84%29.83 "HgN/A
7:00 PM79 °FPassing clouds.6 mph84%29.80 "HgN/A
Weather by CustomWeather, © 2014

See weather overview